[[{"header":{"parameterUnit":"m.s-1","parameterCategory":2,"la1":30.2991,"la2":30.254,"lo1":-89.0895,"lo2":-89.0444,"dy":0.0017,"dx":0.0017,"nx":28,"ny":28,"refTime":"2024-10-20T09:00:00:Z","depth":"0","parameterNumber":2,"parameterNumberName":"U-component_of_CURRENTS"},"data":[0,0,0,0,0,0,0,0,0,0,0,0,0,0,0,0,0,0,0,0,0,0,0,0,0,0,0,0,0,0,0,0,0,0,0,0,0,0,0,0,0,0,0,0,0,0,0,0,0,0,0,0,0,0,0,0,0,0,0.35,0.35,0,0.349,0.349,0.349,0.3468,0.3468,0.3468,0.3468,0.3404,0.3402,0.3401,0,0,0,0,0,0,0,0,0,0,0,0,0,0.35,0.35,0.35,0.35,0.3501,0.349,0.349,0.3489,0.3468,0.3468,0.3468,0.3468,0.3404,0.3402,0.34,0,0,0,0,0,0,0,0,0,0,0,0,0,0.3493,0.35,0.35,0.3491,0.3491,0.3491,0.349,0.3489,0.3468,0.3468,0.3468,0.3468,0.3405,0.3403,0.34,0.3388,0,0,0.3393,0.3392,0,0,0,0,0,0,0,0,0.3493,0.3492,0.3492,0.3492,0.3491,0.3484,0.3467,0.3454,0.3468,0.3473,0.3468,0.3467,0.3428,0.3424,0.3418,0.3385,0.3383,0.3393,0.3391,0.339,0.3389,0,0,0,0,0,0,0,0.3494,0.3493,0.3492,0.3493,0.3492,0.3488,0.3487,0.3464,0.3447,0.3472,0.3472,0.3477,0.3427,0.342,0.3416,0.3382,0.3393,0.3391,0.3389,0.3388,0.3365,0.3366,0,0,0,0,0,0,0.3503,0.3493,0.3493,0.3493,0.3496,0.3489,0.3487,0.3483,0.3449,0.3445,0.3477,0.3476,0.3424,0.3419,0.3413,0.341,0.339,0.3388,0.3386,0.3364,0.3365,0.3366,0,0,0,0,0,0,0.3502,0.3502,0.3493,0.3496,0.3495,0.3489,0.3485,0.3483,0.3478,0.3453,0.3448,0.3475,0.3424,0.3417,0.34,0.3407,0.3387,0.3385,0.3363,0.3364,0.3365,0.3394,0,0,0,0,0,0,0.3502,0.3502,0.3496,0.3496,0.3496,0.3493,0.3486,0.3483,0.3483,0.3482,0.345,0.3444,0.3423,0.3404,0.3398,0.3403,0.3383,0.3362,0.3364,0.3365,0.3392,0.3396,0.34,0,0,0,0,0,0.3502,0.3487,0.3496,0.3496,0.3489,0.3494,0.3492,0.3485,0.3484,0.348,0.3465,0.3445,0.341,0.3403,0.3395,0.3399,0.3361,0.3363,0.3365,0.339,0.3395,0.3399,0,0,0,0,0,0,0.3469,0.3484,0.3493,0.348,0.3492,0.3491,0.3485,0.3488,0.3474,0.3473,0.3447,0.344,0.3432,0.3414,0.3407,0.3401,0.3385,0.3386,0.3407,0.3412,0.3415,0.3425,0.3381,0,0,0,0,0,0.3466,0.3465,0.3482,0.3472,0.348,0.3487,0.3487,0.3491,0.3484,0.3478,0.3455,0.344,0.3434,0.3421,0.3409,0.3396,0.3414,0.3398,0.3402,0.3405,0.341,0.3457,0.3466,0.3372,0.3372,0.3372,0,0,0.3449,0.3459,0.3455,0.3467,0.3473,0.3475,0.3485,0.3491,0.349,0.3472,0.3452,0.345,0.3436,0.3429,0.3424,0.3412,0.3443,0.3408,0.341,0.3414,0.346,0.3469,0.3478,0.3373,0.3373,0.3373,0,0,0.3416,0.3428,0.342,0.3433,0.3456,0.3466,0.3472,0.348,0.3483,0.3475,0.3472,0.348,0.3445,0.345,0.3446,0.3464,0.3466,0.3457,0.3474,0.352,0.3528,0.3536,0.3576,0.3587,0.3454,0.3454,0.3454,0,0.3395,0.3391,0.3417,0.3417,0.3431,0.3463,0.3465,0.347,0.3469,0.3483,0.347,0.3475,0.3459,0.3479,0.3483,0.3472,0.3497,0.3455,0.3526,0.3533,0.3541,0.358,0.3591,0.3455,0.3455,0.3455,0.3455,0,0.336,0.3364,0.3362,0.3378,0.3395,0.3404,0.3434,0.3445,0.3458,0.3472,0.3499,0.3495,0.3504,0.3503,0.349,0.3536,0.3539,0.353,0.3515,0.3552,0.3591,0.3602,0.3458,0.3457,0.3457,0.3456,0,0,0.3288,0.3332,0.3327,0.3341,0.3384,0.3389,0.3413,0.3449,0.3479,0.3482,0.3523,0.3519,0.3542,0.3542,0.3546,0.3577,0.3645,0.3572,0.3573,0.3612,0.375,0.3716,0.3725,0.3652,0.3654,0.3656,0.3759,0,0.3253,0.3251,0.329,0.3292,0.33,0.3359,0.3384,0.3425,0.3469,0.3512,0.3545,0.3581,0.3551,0.3577,0.3601,0.3647,0.3676,0.3618,0.3708,0.371,0.3676,0.3738,0.3592,0.3668,0.377,0.3772,0.3774,0,0.3198,0.3211,0.3213,0.3275,0.3287,0.3297,0.3374,0.3401,0.3488,0.3538,0.3592,0.3628,0.3685,0.3657,0.3741,0.3707,0.3726,0.3751,0.3756,0.3721,0.3698,0.3646,0.3685,0.3604,0.3791,0.379,0.3789,0,0.3121,0.3154,0.316,0.3173,0.3243,0.3268,0.3308,0.3398,0.3458,0.3565,0.3633,0.3699,0.3753,0.3791,0.3833,0.3799,0.3932,0.3892,0.3877,0.3875,0.3766,0.3751,0.3735,0.3948,0.3947,0.3947,0.3947,0,0.3062,0.306,0.3122,0.3118,0.315,0.3215,0.3274,0.3343,0.3467,0.3538,0.3634,0.3712,0.3791,0.3869,0.388,0.3927,0.3971,0.3899,0.3907,0.3772,0.3756,0.3692,0.3642,0.3951,0.395,0.3949,0.3949,0,0.2972,0.3008,0.302,0.3088,0.3112,0.3128,0.3253,0.3302,0.3435,0.3539,0.3583,0.3751,0.3857,0.3931,0.4023,0.3995,0.3933,0.404,0.3877,0.3863,0.3738,0.3695,0.3572,0.3457,0.4036,0.4036,0.4036,0,0.2924,0.292,0.2982,0.2995,0.3025,0.3074,0.312,0.3264,0.3335,0.3544,0.3587,0.3755,0.3852,0.4005,0.4018,0.4069,0.393,0.3932,0.3827,0.373,0.3688,0.3547,0.3447,0.37,0.3697,0.3695,0.3693,0,0.2846,0.2872,0.2888,0.2921,0.2954,0.2999,0.3073,0.3142,0.3303,0.3404,0.3543,0.3651,0.3834,0.3848,0.3946,0.3941,0.3738,0.3884,0.3823,0.3462,0.3265,0.3158,0.364,0.3672,0.3674,0.3676,0.3677,0.3677,0.2793,0.2788,0.2817,0.2838,0.2872,0.2901,0.2903,0.3005,0.3096,0.3214,0.3392,0.3481,0.3628,0.3762,0.3753,0.3653,0.3617,0.3517,0.3489,0.3368,0.3191,0.3632,0.3645,0.3647,0.3648,0.365,0.3651,0,0.2717,0.2719,0.2735,0.2743,0.2728,0.2787,0.2846,0.2828,0.286,0.3024,0.3116,0.3233,0.33,0.3398,0.3409,0.3282,0.3122,0.3175,0.2936,0.2868,0.3308,0.3229,0.3102,0.3102,0.3102,0.3102,0.3102,0.3102,0.2677,0.2648,0.2649,0.2587,0.259,0.2525,0.2526,0.2523,0.2597,0.2653,0.2711,0.2835,0.3085,0.3182,0.3097,0.3012,0.2763,0.2633,0.2627,0.2949,0.2978,0.3005,0.292,0.273,0.2729,0.2058,0.2053,0.205]},{"header":{"parameterUnit":"m.s-1","parameterCategory":2,"la1":30.2991,"la2":30.254,"lo1":-89.0895,"lo2":-89.0444,"dy":0.0017,"dx":0.0017,"nx":28,"ny":28,"refTime":"2024-10-20T09:00:00:Z","depth":"0","parameterNumber":3,"parameterNumberName":"V-component_of_CURRENTS"},"data":[0,0,0,0,0,0,0,0,0,0,0,0,0,0,0,0,0,0,0,0,0,0,0,0,0,0,0,0,0,0,0,0,0,0,0,0,0,0,0,0,0,0,0,0,0,0,0,0,0,0,0,0,0,0,0,0,0,0,-0.0232,-0.0233,0,-0.0299,-0.03,-0.0301,-0.0348,-0.0348,-0.0349,-0.0349,-0.0398,-0.0399,-0.04,0,0,0,0,0,0,0,0,0,0,0,0,0,-0.0169,-0.017,-0.0232,-0.0233,-0.0234,-0.0299,-0.03,-0.0301,-0.0348,-0.0348,-0.0349,-0.0349,-0.0397,-0.0399,-0.04,0,0,0,0,0,0,0,0,0,0,0,0,0,-0.0212,-0.017,-0.0232,-0.0266,-0.0269,-0.0299,-0.03,-0.0301,-0.0348,-0.0348,-0.0349,-0.0349,-0.0397,-0.0398,-0.04,-0.0396,0,0,-0.0404,-0.0405,0,0,0,0,0,0,0,0,-0.0209,-0.0214,-0.026,-0.0263,-0.0268,-0.0316,-0.0296,-0.0332,-0.0347,-0.0317,-0.0349,-0.035,-0.0369,-0.0372,-0.0383,-0.0398,-0.04,-0.0404,-0.0405,-0.0405,-0.0406,0,0,0,0,0,0,0,-0.0206,-0.0212,-0.0258,-0.0261,-0.0265,-0.0286,-0.0292,-0.0303,-0.0338,-0.032,-0.0324,-0.0332,-0.0371,-0.0382,-0.0385,-0.0401,-0.0404,-0.0405,-0.0406,-0.0407,-0.0417,-0.0417,0,0,0,0,0,0,-0.0197,-0.0209,-0.0256,-0.026,-0.024,-0.0286,-0.0294,-0.03,-0.0338,-0.0345,-0.0331,-0.0334,-0.0379,-0.0383,-0.0386,-0.0367,-0.0405,-0.0407,-0.0408,-0.0418,-0.0417,-0.0416,0,0,0,0,0,0,-0.0196,-0.0201,-0.0254,-0.0237,-0.0245,-0.0287,-0.0293,-0.0301,-0.031,-0.0347,-0.0354,-0.0333,-0.038,-0.0385,-0.0393,-0.037,-0.0407,-0.0409,-0.0418,-0.0418,-0.0417,-0.0339,0,0,0,0,0,0,-0.0193,-0.02,-0.0195,-0.0236,-0.0246,-0.0255,-0.0293,-0.0302,-0.0314,-0.0318,-0.035,-0.0356,-0.0381,-0.0391,-0.0394,-0.0372,-0.041,-0.0419,-0.0418,-0.0417,-0.0342,-0.0335,-0.033,0,0,0,0,0,-0.0191,-0.0176,-0.0194,-0.0199,-0.0239,-0.0254,-0.026,-0.0292,-0.0313,-0.0305,-0.0336,-0.0355,-0.0387,-0.0391,-0.0396,-0.0374,-0.042,-0.0418,-0.0417,-0.0345,-0.0337,-0.033,0,0,0,0,0,0,-0.0142,-0.0181,-0.0201,-0.0198,-0.0219,-0.0262,-0.0258,-0.0284,-0.0303,-0.0309,-0.0348,-0.0354,-0.0355,-0.0376,-0.038,-0.0375,-0.0406,-0.0406,-0.035,-0.0342,-0.0336,-0.0314,-0.0411,0,0,0,0,0,-0.0131,-0.0133,-0.017,-0.0167,-0.0175,-0.0216,-0.0226,-0.0249,-0.0275,-0.0285,-0.031,-0.0337,-0.0354,-0.0357,-0.0377,-0.0369,-0.0394,-0.0359,-0.0353,-0.0347,-0.0333,-0.036,-0.0355,-0.0412,-0.0412,-0.0412,0,0,-0.0116,-0.0133,-0.0137,-0.0157,-0.0178,-0.0169,-0.0223,-0.023,-0.0223,-0.0285,-0.0279,-0.0316,-0.0349,-0.0346,-0.0347,-0.0358,-0.0344,-0.0346,-0.034,-0.0329,-0.0358,-0.0353,-0.0348,-0.0412,-0.0412,-0.0412,0,0,-0.0071,-0.0096,-0.0078,-0.0087,-0.0109,-0.0133,-0.0131,-0.0167,-0.0182,-0.0187,-0.0233,-0.0255,-0.0276,-0.0296,-0.0309,-0.0279,-0.0315,-0.0286,-0.0228,-0.0255,-0.025,-0.0246,-0.0267,-0.0266,-0.0277,-0.0276,-0.0276,0,-0.0045,-0.0032,-0.0073,-0.0051,-0.005,-0.0109,-0.0082,-0.0101,-0.0136,-0.0141,-0.0172,-0.0217,-0.025,-0.0247,-0.0241,-0.0262,-0.0284,-0.0251,-0.0245,-0.0242,-0.024,-0.0263,-0.0262,-0.0273,-0.0273,-0.0273,-0.0274,0,0.0015,0.0026,0.0039,0.0046,0.0044,0.0054,0.0022,0.0016,-0.0017,-0.0042,-0.0058,-0.0115,-0.0139,-0.0157,-0.019,-0.0183,-0.0207,-0.0239,-0.026,-0.0229,-0.0255,-0.0256,-0.0267,-0.0268,-0.027,-0.0271,0,0,0.0079,0.0081,0.0089,0.0106,0.0094,0.0101,0.0113,0.0109,0.0125,0.0073,0.0086,0.0032,-0.0013,-0.0031,-0.0083,-0.011,-0.0118,-0.0158,-0.0161,-0.0171,-0.0172,-0.0179,-0.0181,-0.0151,-0.015,-0.015,-0.0197,0,0.0143,0.02,0.0184,0.0239,0.0262,0.0222,0.0238,0.0225,0.0204,0.0204,0.0129,0.0118,0.004,0.0026,-0.0012,-0.0089,-0.0117,-0.0102,-0.0208,-0.021,-0.0214,-0.0181,-0.0152,-0.019,-0.0198,-0.0198,-0.0198,0,0.0218,0.0244,0.0304,0.0326,0.0334,0.0354,0.0372,0.0385,0.0363,0.0342,0.0311,0.025,0.0204,0.0127,0.0018,0.0031,-0.0058,-0.0128,-0.0132,-0.0163,-0.0218,-0.0225,-0.0192,-0.0334,-0.02,-0.02,-0.02,0,0.0286,0.0334,0.0382,0.0392,0.0405,0.0421,0.0431,0.0426,0.0461,0.0436,0.0451,0.0369,0.0344,0.0218,0.0071,0.0046,-0.0051,-0.0107,-0.0197,-0.0199,-0.0206,-0.0208,-0.0314,-0.0182,-0.0182,-0.0182,-0.0182,0,0.0361,0.0403,0.0415,0.0441,0.0507,0.0489,0.0559,0.0552,0.0573,0.0631,0.053,0.0558,0.0365,0.0282,0.0123,-0.0024,-0.0012,-0.0173,-0.0206,-0.0178,-0.0177,-0.0329,-0.043,-0.0184,-0.0183,-0.0183,-0.0183,0,0.0425,0.0431,0.0492,0.052,0.0538,0.0585,0.0654,0.0708,0.0703,0.0778,0.0775,0.0715,0.0609,0.0411,0.0223,0.0066,-0.0179,-0.0156,-0.0106,-0.0133,-0.0356,-0.0454,-0.0605,-0.067,-0.026,-0.026,-0.0261,0,0.0459,0.0496,0.0559,0.0608,0.0623,0.0693,0.0748,0.0772,0.0849,0.0886,0.0937,0.0859,0.0839,0.0562,0.0273,0.0005,-0.0168,-0.0164,-0.0214,-0.0348,-0.0483,-0.0555,-0.0604,-0.0196,-0.0196,-0.0196,-0.0195,0,0.0529,0.0547,0.0598,0.0699,0.0767,0.086,0.0944,0.1026,0.1065,0.1134,0.1215,0.1203,0.0942,0.071,0.0328,0.012,-0.0262,-0.0168,-0.0322,-0.0445,-0.0516,-0.0599,-0.0189,-0.0194,-0.0194,-0.0194,-0.0194,-0.0194,0.0583,0.0635,0.0703,0.0802,0.0891,0.1011,0.1103,0.1211,0.1348,0.1455,0.1437,0.1456,0.1087,0.0591,0.0294,-0.0223,-0.0251,-0.0382,-0.049,-0.0549,-0.0611,-0.0189,-0.0225,-0.0226,-0.0226,-0.0226,-0.0227,0,0.0651,0.0709,0.0805,0.0921,0.1032,0.1063,0.1226,0.133,0.1504,0.161,0.1687,0.1537,0.1089,0.0592,-0.0096,-0.0462,-0.0612,-0.0677,-0.0776,-0.0813,-0.0441,-0.0436,-0.05,-0.05,-0.05,-0.05,-0.05,-0.05,0.0688,0.0785,0.0831,0.1018,0.1106,0.1256,0.1354,0.1514,0.1635,0.1784,0.1815,0.1806,0.1432,0.0231,-0.0579,-0.0779,-0.1042,-0.1107,-0.1243,-0.0997,-0.0978,-0.0959,-0.0977,-0.1154,-0.1155,-0.1542,-0.1546,-0.1549]}],[{"header":{"parameterUnit":"m.s-1","parameterCategory":2,"la1":30.2991,"la2":30.254,"lo1":-89.0895,"lo2":-89.0444,"dy":0.0017,"dx":0.0017,"nx":28,"ny":28,"refTime":"2024-10-20T09:00:00:Z","depth":"2","parameterNumber":2,"parameterNumberName":"U-component_of_CURRENTS"},"data":[0,0,0,0,0,0,0,0,0,0,0,0,0,0,0,0,0,0,0,0,0,0,0,0,0,0,0,0,0,0,0,0,0,0,0,0,0,0,0,0,0,0,0,0,0,0,0,0,0,0,0,0,0,0,0,0,0,0,0.2865,0.2865,0,0.288,0.288,0.288,0.2896,0.2896,0.2897,0.2897,0.293,0.293,0.2931,0,0,0,0,0,0,0,0,0,0,0,0,0,0.2844,0.2844,0.2865,0.2865,0.2865,0.288,0.288,0.288,0.2896,0.2896,0.2897,0.2897,0.2929,0.293,0.2931,0,0,0,0,0,0,0,0,0,0,0,0,0,0.2854,0.2844,0.2864,0.2876,0.2877,0.288,0.288,0.288,0.2896,0.2896,0.2897,0.2897,0.2929,0.293,0.2931,0.2926,0,0,0.2933,0.2934,0,0,0,0,0,0,0,0,0.2853,0.2855,0.2874,0.2875,0.2876,0.2888,0.2885,0.2897,0.2896,0.2887,0.2897,0.2898,0.2918,0.2919,0.2919,0.2928,0.2929,0.2934,0.2934,0.2934,0.2935,0,0,0,0,0,0,0,0.2853,0.2854,0.2869,0.2874,0.2876,0.2878,0.288,0.2887,0.2899,0.2888,0.289,0.2893,0.2918,0.2918,0.292,0.293,0.2933,0.2934,0.2935,0.2935,0.3004,0.3006,0,0,0,0,0,0,0.2853,0.2853,0.2869,0.287,0.2867,0.2879,0.2881,0.2883,0.2899,0.2902,0.2893,0.2894,0.2917,0.2919,0.2921,0.2973,0.2934,0.2935,0.2936,0.3003,0.3005,0.3006,0,0,0,0,0,0,0.2852,0.2854,0.2868,0.2863,0.2865,0.2879,0.288,0.2883,0.2904,0.2902,0.2905,0.2915,0.2917,0.292,0.2952,0.2973,0.2936,0.2936,0.3002,0.3004,0.3005,0.3041,0,0,0,0,0,0,0.2852,0.2854,0.286,0.2863,0.2866,0.2892,0.288,0.2883,0.2905,0.2907,0.2922,0.2924,0.2918,0.2951,0.2953,0.2973,0.2937,0.3,0.3002,0.3005,0.3038,0.3044,0.3049,0,0,0,0,0,0.2851,0.2846,0.286,0.2862,0.2872,0.2893,0.2895,0.2905,0.2906,0.2924,0.2935,0.2925,0.2968,0.2953,0.2955,0.2976,0.2999,0.3002,0.3005,0.3036,0.3043,0.3049,0,0,0,0,0,0,0.2829,0.2847,0.2862,0.2862,0.2891,0.2897,0.2905,0.2918,0.2939,0.2942,0.2941,0.2944,0.2982,0.2976,0.2959,0.3005,0.2982,0.2986,0.3005,0.3012,0.3017,0.3019,0.2938,0,0,0,0,0,0.2831,0.2843,0.2864,0.2872,0.2883,0.2902,0.2912,0.2927,0.2942,0.2952,0.296,0.2972,0.2991,0.3001,0.3014,0.3036,0.3048,0.3052,0.3058,0.3062,0.3066,0.311,0.312,0.3016,0.3016,0.3016,0,0,0.2827,0.2838,0.2846,0.2871,0.2887,0.2906,0.291,0.2935,0.2956,0.2952,0.2979,0.2995,0.3004,0.3032,0.3047,0.3031,0.31,0.3066,0.307,0.3071,0.3114,0.3125,0.3133,0.3018,0.3018,0.3017,0,0,0.2822,0.2836,0.2847,0.2872,0.2907,0.2918,0.2934,0.2958,0.2977,0.301,0.3015,0.3047,0.3066,0.3078,0.3086,0.313,0.3132,0.3136,0.3158,0.3201,0.321,0.3218,0.3252,0.3263,0.3133,0.3133,0.3133,0,0.282,0.2833,0.2856,0.2873,0.2894,0.2927,0.2949,0.297,0.3005,0.3026,0.3027,0.3081,0.3087,0.3127,0.3141,0.3142,0.3165,0.313,0.3208,0.3216,0.3224,0.3256,0.3268,0.3135,0.3135,0.3135,0.3135,0,0.282,0.2843,0.285,0.2887,0.2913,0.2939,0.2974,0.3005,0.303,0.3055,0.3113,0.313,0.3163,0.3172,0.3167,0.3224,0.3224,0.3214,0.3189,0.3236,0.3268,0.3279,0.3138,0.3137,0.3137,0.3136,0,0,0.2788,0.2842,0.2847,0.2869,0.2926,0.294,0.2986,0.3035,0.3073,0.311,0.3162,0.3194,0.3216,0.3227,0.3236,0.3268,0.3337,0.3263,0.3265,0.3293,0.3436,0.3384,0.3391,0.3345,0.3347,0.3349,0.3438,0,0.2789,0.2814,0.2851,0.2888,0.2904,0.2959,0.3001,0.3052,0.3104,0.3161,0.3199,0.3254,0.3234,0.3267,0.3294,0.3338,0.3368,0.3314,0.339,0.3392,0.3337,0.3402,0.313,0.3183,0.3449,0.3451,0.3452,0,0.2774,0.2796,0.2826,0.2891,0.2906,0.2936,0.3013,0.3058,0.315,0.3203,0.3265,0.3304,0.3368,0.3345,0.3429,0.34,0.3419,0.3441,0.3445,0.339,0.336,0.3179,0.3193,0.347,0.3469,0.3468,0.3466,0,0.2717,0.2776,0.2797,0.2818,0.2894,0.2926,0.2972,0.3065,0.3124,0.3238,0.33,0.3376,0.3433,0.3472,0.3513,0.3485,0.3605,0.357,0.3539,0.3535,0.3314,0.3287,0.3626,0.3626,0.3626,0.3625,0.3625,0,0.2689,0.2706,0.2771,0.2779,0.2823,0.2888,0.2956,0.3029,0.3146,0.3216,0.3312,0.3384,0.3471,0.3542,0.3554,0.359,0.364,0.356,0.3562,0.3319,0.3294,0.3544,0.3533,0.3629,0.3628,0.3627,0.3627,0,0.2623,0.2665,0.2693,0.2768,0.2795,0.2822,0.2943,0.2992,0.3119,0.3219,0.3264,0.342,0.3519,0.3589,0.3679,0.3647,0.3685,0.3677,0.3389,0.3355,0.3572,0.3563,0.3654,0.3653,0.3652,0.3651,0.3651,0,0.2589,0.2595,0.2668,0.2686,0.2722,0.2781,0.2827,0.2964,0.3028,0.3221,0.3259,0.3416,0.3494,0.3624,0.3622,0.3657,0.3697,0.3403,0.3292,0.3586,0.3579,0.3571,0.3562,0.3015,0.3009,0.3004,0.3001,0,0.2531,0.2561,0.2583,0.2623,0.2663,0.2708,0.2784,0.2835,0.2988,0.3076,0.3197,0.3286,0.3438,0.3368,0.344,0.3411,0.3377,0.331,0.3702,0.3055,0.2992,0.2983,0.2994,0.2959,0.2963,0.2966,0.2968,0.297,0.2488,0.2489,0.2522,0.2549,0.2589,0.2611,0.2609,0.2696,0.2768,0.2861,0.3026,0.306,0.3138,0.3117,0.3045,0.299,0.3215,0.3046,0.3057,0.3073,0.2989,0.2928,0.2867,0.287,0.2873,0.2876,0.2878,0,0.2421,0.2428,0.2447,0.2459,0.2445,0.2513,0.2555,0.2522,0.2534,0.2658,0.2732,0.2569,0.2561,0.263,0.2499,0.2523,0.2461,0.2404,0.2282,0.2328,0.2368,0.2242,0.1925,0.1921,0.1918,0.1915,0,0,0.2387,0.2361,0.236,0.2301,0.2312,0.2255,0.2248,0.2226,0.2266,0.2246,0.2245,0.2451,0.2565,0.22,0.2175,0.2019,0.2146,0.1944,0.2719,0.2623,0.2657,0.2763,0.2626,0,0,0,0,0]},{"header":{"parameterUnit":"m.s-1","parameterCategory":2,"la1":30.2991,"la2":30.254,"lo1":-89.0895,"lo2":-89.0444,"dy":0.0017,"dx":0.0017,"nx":28,"ny":28,"refTime":"2024-10-20T09:00:00:Z","depth":"2","parameterNumber":3,"parameterNumberName":"V-component_of_CURRENTS"},"data":[0,0,0,0,0,0,0,0,0,0,0,0,0,0,0,0,0,0,0,0,0,0,0,0,0,0,0,0,0,0,0,0,0,0,0,0,0,0,0,0,0,0,0,0,0,0,0,0,0,0,0,0,0,0,0,0,0,0,0.018,0.0179,0,0.0101,0.01,0.0099,0.0039,0.0039,0.0039,0.0038,-0.0055,-0.0057,-0.0059,0,0,0,0,0,0,0,0,0,0,0,0,0,0.0239,0.0238,0.018,0.0179,0.0178,0.0102,0.01,0.0099,0.004,0.0039,0.0038,0.0038,-0.0054,-0.0057,-0.0059,0,0,0,0,0,0,0,0,0,0,0,0,0,0.0191,0.0238,0.018,0.0139,0.0135,0.0102,0.01,0.0099,0.004,0.0039,0.0038,0.0038,-0.0054,-0.0056,-0.0059,-0.0064,0,0,-0.0069,-0.007,0,0,0,0,0,0,0,0,0.0194,0.0189,0.0146,0.0142,0.0137,0.008,0.0087,0.0044,0.004,0.0075,0.0038,0.0037,-0.001,-0.0017,-0.0031,-0.0068,-0.0072,-0.0069,-0.0071,-0.0072,-0.0073,0,0,0,0,0,0,0,0.0198,0.0192,0.0148,0.0145,0.014,0.0112,0.0105,0.0078,0.0037,0.0072,0.0068,0.006,-0.0013,-0.0028,-0.0033,-0.0073,-0.0069,-0.0072,-0.0074,-0.0075,-0.0134,-0.0133,0,0,0,0,0,0,0.0212,0.0195,0.015,0.0145,0.0165,0.0112,0.0104,0.0099,0.0037,0.0027,0.0061,0.0058,-0.0022,-0.003,-0.0037,-0.0049,-0.0072,-0.0075,-0.0077,-0.0134,-0.0134,-0.0133,0,0,0,0,0,0,0.0213,0.0209,0.0153,0.0169,0.016,0.0112,0.0106,0.0097,0.0077,0.0029,0.0019,0.005,-0.0023,-0.0033,-0.0064,-0.0053,-0.0076,-0.0079,-0.0134,-0.0134,-0.0133,-0.007,0,0,0,0,0,0,0.0215,0.021,0.021,0.017,0.016,0.0136,0.0107,0.0096,0.0074,0.0069,0.0016,0.0007,-0.0024,-0.0059,-0.0067,-0.0057,-0.0082,-0.0135,-0.0134,-0.0134,-0.0072,-0.0067,-0.0063,0,0,0,0,0,0.0218,0.0226,0.021,0.0204,0.0162,0.0137,0.0129,0.0091,0.0075,0.0069,0.0032,0.0008,-0.0061,-0.0061,-0.0071,-0.0061,-0.0135,-0.0134,-0.0134,-0.0074,-0.0068,-0.0063,0,0,0,0,0,0,0.025,0.0219,0.0201,0.0198,0.017,0.0127,0.0121,0.0094,0.006,0.0055,0.0008,-0.0003,-0.0027,-0.0053,-0.0052,-0.0077,-0.0101,-0.0102,-0.0052,-0.0047,-0.0042,-0.0021,-0.0084,0,0,0,0,0,0.0259,0.0255,0.0219,0.0215,0.0206,0.0163,0.0148,0.0123,0.0088,0.0072,0.0035,-0.0001,-0.003,-0.0046,-0.0077,-0.009,-0.0116,-0.009,-0.0085,-0.0081,-0.007,-0.0102,-0.0099,-0.0131,-0.0131,-0.0131,0,0,0.0269,0.0252,0.0248,0.0221,0.0198,0.0193,0.0152,0.0135,0.0128,0.0069,0.005,0.0011,-0.0031,-0.0049,-0.006,-0.0069,-0.0086,-0.008,-0.0076,-0.0068,-0.0101,-0.0098,-0.0095,-0.0131,-0.0131,-0.0131,0,0,0.0293,0.0276,0.0281,0.0265,0.0236,0.0213,0.0211,0.017,0.015,0.0124,0.0084,0.0053,0.0006,-0.0018,-0.0037,-0.0025,-0.0063,-0.0036,0.0008,-0.0023,-0.0021,-0.0019,-0.0048,-0.0049,-0.003,-0.003,-0.003,0,0.0304,0.0309,0.0278,0.0281,0.0277,0.0228,0.0238,0.0212,0.0164,0.0158,0.0127,0.0063,0.0023,0.001,0.0011,-0.0013,-0.0038,-0.0008,-0.0016,-0.0015,-0.0014,-0.0045,-0.0047,-0.0027,-0.0027,-0.0027,-0.0028,0,0.0332,0.0335,0.034,0.0331,0.0322,0.0322,0.029,0.0276,0.0245,0.0219,0.019,0.0129,0.0097,0.0076,0.0045,0.0038,0.0015,-0.0009,-0.0026,-0.0007,-0.0041,-0.0044,-0.0022,-0.0023,-0.0024,-0.0025,0,0,0.0361,0.0361,0.0363,0.0375,0.0352,0.0353,0.0348,0.0337,0.0347,0.0286,0.0289,0.0225,0.0192,0.0168,0.0122,0.0091,0.0069,0.005,0.0047,0.0028,0.0001,-0.0014,-0.002,0.0043,0.0043,0.0043,-0.0025,0,0.0392,0.0421,0.0408,0.0439,0.0456,0.0425,0.0428,0.041,0.0389,0.0379,0.0312,0.0293,0.0227,0.0214,0.0172,0.0099,0.0064,0.009,-0.0021,-0.0024,-0.0035,-0.0023,0.0,-0.0058,-0.0028,-0.0029,-0.0029,0,0.0426,0.0444,0.0481,0.0506,0.0511,0.0517,0.0534,0.0535,0.0508,0.0489,0.0455,0.0402,0.0349,0.0287,0.0171,0.0191,0.0106,0.0039,0.0034,-0.0002,-0.0045,-0.0074,-0.0066,-0.0035,-0.0035,-0.0034,-0.0034,0,0.0472,0.05,0.0537,0.0543,0.0555,0.0567,0.0576,0.0568,0.0596,0.0568,0.0578,0.0494,0.0464,0.0345,0.0203,0.0189,0.0072,0.0033,-0.0064,-0.0066,-0.0078,-0.0081,-0.0049,-0.0049,-0.0049,-0.0049,-0.0048,0,0.0515,0.0546,0.0563,0.0582,0.0638,0.0624,0.0682,0.0676,0.069,0.0736,0.0645,0.0657,0.0478,0.0386,0.024,0.0086,0.0098,-0.005,-0.0082,-0.0056,-0.0056,-0.0063,-0.0064,-0.0051,-0.0051,-0.005,-0.005,0,0.0557,0.0563,0.0614,0.0642,0.066,0.0701,0.0765,0.0811,0.0805,0.0862,0.0858,0.0787,0.0669,0.0482,0.0294,0.0151,-0.0008,-0.0069,-0.0026,-0.0052,-0.0136,-0.0133,-0.0182,-0.0183,-0.0183,-0.0184,-0.0185,0,0.0579,0.0609,0.067,0.0712,0.0727,0.0791,0.0841,0.0867,0.093,0.0949,0.0986,0.0893,0.0845,0.0562,0.0297,0.0041,-0.0,-0.0116,-0.0144,-0.0122,-0.0149,-0.0144,-0.014,-0.014,-0.014,-0.014,-0.014,0,0.0628,0.0647,0.0692,0.0783,0.0845,0.0932,0.1008,0.1076,0.111,0.1155,0.1196,0.1159,0.0893,0.0651,0.0294,0.0111,-0.0076,-0.0127,-0.0113,-0.0106,-0.0088,-0.0112,-0.0108,-0.0142,-0.0142,-0.0142,-0.0142,-0.0142,0.0668,0.0712,0.0774,0.0863,0.0945,0.1054,0.1133,0.1221,0.1326,0.1391,0.1355,0.1301,0.1016,0.0575,0.0262,-0.0078,-0.0065,-0.0193,-0.0191,-0.0189,-0.0167,-0.0151,-0.0214,-0.0214,-0.0214,-0.0214,-0.0215,0,0.0715,0.0767,0.0852,0.0956,0.1055,0.1092,0.1234,0.1313,0.1438,0.1489,0.1516,0.1247,0.0971,0.0631,0.0143,-0.0148,-0.0181,-0.0255,-0.0221,-0.0217,-0.0214,-0.0194,-0.0248,-0.0249,-0.025,-0.0251,0,0,0.074,0.0823,0.0866,0.1027,0.1109,0.1244,0.1329,0.1442,0.1513,0.1564,0.1538,0.1479,0.1076,0.0723,0.0327,0.0043,-0.0029,-0.0028,0.0029,0.0119,0.0126,-0.0149,-0.0109,0,0,0,0,0]}],[{"header":{"parameterUnit":"m.s-1","parameterCategory":2,"la1":30.2991,"la2":30.254,"lo1":-89.0895,"lo2":-89.0444,"dy":0.0017,"dx":0.0017,"nx":28,"ny":28,"refTime":"2024-10-20T09:00:00:Z","depth":"4","parameterNumber":2,"parameterNumberName":"U-component_of_CURRENTS"},"data":[0,0,0,0,0,0,0,0,0,0,0,0,0,0,0,0,0,0,0,0,0,0,0,0,0,0,0,0,0,0,0,0,0,0,0,0,0,0,0,0,0,0,0,0,0,0,0,0,0,0,0,0,0,0,0,0,0,0,0.1763,0.1764,0,0.1848,0.1849,0.185,0.191,0.1911,0.1911,0.1912,0.2015,0.2017,0.2019,0,0,0,0,0,0,0,0,0,0,0,0,0,0.1663,0.1664,0.1762,0.1764,0.1765,0.1848,0.1849,0.185,0.191,0.1911,0.1911,0.1912,0.2014,0.2017,0.2019,0,0,0,0,0,0,0,0,0,0,0,0,0,0.1721,0.1665,0.1762,0.1807,0.1812,0.1848,0.1849,0.185,0.191,0.1911,0.1912,0.1913,0.2014,0.2017,0.202,0.2018,0,0,0.2029,0.2031,0,0,0,0,0,0,0,0,0.1717,0.1724,0.1799,0.1804,0.181,0.1872,0.1852,0.1908,0.1909,0.187,0.1912,0.1913,0.197,0.1976,0.1986,0.2023,0.2027,0.203,0.2031,0.2033,0.2034,0,0,0,0,0,0,0,0.1713,0.1721,0.1794,0.18,0.1807,0.1827,0.1836,0.1863,0.1911,0.1873,0.1878,0.1892,0.1972,0.1983,0.1989,0.2029,0.2029,0.2032,0.2034,0.2035,0.2184,0.2186,0,0,0,0,0,0,0.1706,0.1717,0.1791,0.1797,0.1768,0.1828,0.1838,0.1849,0.1911,0.1922,0.1891,0.1894,0.1977,0.1985,0.1993,0.2097,0.2033,0.2036,0.2038,0.2182,0.2185,0.2187,0,0,0,0,0,0,0.1704,0.1712,0.1788,0.1761,0.1772,0.1829,0.184,0.185,0.19,0.1924,0.1935,0.1937,0.1978,0.1989,0.2056,0.2098,0.2037,0.204,0.218,0.2183,0.2186,0.2239,0,0,0,0,0,0,0.17,0.171,0.1735,0.176,0.1774,0.1834,0.184,0.1851,0.1906,0.1912,0.1966,0.1975,0.198,0.2051,0.2059,0.2101,0.2042,0.2177,0.2181,0.2185,0.2235,0.2244,0.2252,0,0,0,0,0,0.1696,0.1719,0.1735,0.1745,0.1799,0.1836,0.1845,0.1886,0.1907,0.1935,0.1977,0.1975,0.2081,0.2055,0.2064,0.2108,0.2175,0.218,0.2185,0.2231,0.2242,0.2251,0,0,0,0,0,0,0.1693,0.1729,0.1746,0.1781,0.1819,0.1848,0.1884,0.1908,0.1962,0.1982,0.2,0.2012,0.2087,0.2091,0.2062,0.2163,0.2129,0.2135,0.2161,0.2172,0.218,0.2173,0.2045,0,0,0,0,0,0.1702,0.1731,0.1764,0.1798,0.1819,0.1859,0.1887,0.1915,0.1957,0.1983,0.2022,0.2065,0.2106,0.2135,0.2169,0.2222,0.2226,0.2258,0.2266,0.2273,0.2275,0.2318,0.233,0.2202,0.2202,0.2202,0,0,0.1709,0.1736,0.1753,0.1801,0.1835,0.187,0.188,0.1934,0.1975,0.1985,0.2068,0.2101,0.2128,0.2191,0.2225,0.2205,0.2314,0.2279,0.2284,0.2282,0.2324,0.2336,0.2347,0.2206,0.2205,0.2205,0,0,0.1729,0.1766,0.1793,0.1827,0.1886,0.1908,0.1932,0.1985,0.2026,0.2096,0.2117,0.2176,0.2242,0.2266,0.2284,0.2359,0.2358,0.2381,0.2416,0.2459,0.2469,0.2478,0.2503,0.2514,0.2382,0.2382,0.2382,0,0.1743,0.1779,0.181,0.1847,0.1883,0.1928,0.1967,0.2009,0.2082,0.2119,0.2135,0.2248,0.2273,0.2338,0.2367,0.2378,0.2398,0.2373,0.2468,0.2477,0.2486,0.2509,0.252,0.2385,0.2385,0.2384,0.2384,0,0.177,0.1816,0.184,0.1897,0.1938,0.1985,0.2036,0.2093,0.2149,0.2187,0.2285,0.2326,0.2388,0.2411,0.2414,0.2492,0.2486,0.2474,0.2437,0.2502,0.2522,0.2533,0.239,0.2389,0.2388,0.2387,0,0,0.1756,0.1841,0.1856,0.1889,0.1973,0.1999,0.2078,0.2148,0.2205,0.2283,0.2359,0.2432,0.2464,0.2487,0.2507,0.2544,0.2622,0.2541,0.2542,0.2556,0.2716,0.2546,0.2541,0.2635,0.2637,0.2638,0.2707,0,0.1775,0.184,0.1887,0.1957,0.199,0.2059,0.2124,0.2196,0.2269,0.2353,0.241,0.2495,0.2489,0.254,0.2575,0.262,0.2654,0.2604,0.266,0.2662,0.2494,0.2548,0.2645,0.2715,0.2717,0.2719,0.272,0,0.1781,0.1826,0.1895,0.1982,0.2006,0.2062,0.2169,0.2235,0.2349,0.2414,0.2499,0.2552,0.2637,0.2622,0.2714,0.2689,0.2709,0.2728,0.2731,0.2556,0.251,0.2639,0.274,0.2738,0.2737,0.2735,0.2734,0,0.173,0.1828,0.1883,0.1915,0.2021,0.2077,0.2145,0.2259,0.2327,0.2465,0.2531,0.2629,0.2701,0.2746,0.2789,0.2771,0.2875,0.2849,0.2708,0.2697,0.2806,0.2795,0.2905,0.2905,0.2905,0.2905,0.2904,0,0.1709,0.1758,0.187,0.1896,0.1974,0.2058,0.2156,0.2243,0.2372,0.2445,0.2562,0.2625,0.2741,0.2807,0.2823,0.2794,0.2904,0.2718,0.2704,0.2827,0.2819,0.2813,0.2801,0.2907,0.2907,0.2906,0.2906,0,0.1641,0.1718,0.1784,0.1906,0.1951,0.2008,0.2156,0.2215,0.2356,0.2458,0.2511,0.2658,0.2738,0.2817,0.2902,0.2821,0.2825,0.2786,0.2922,0.2914,0.2609,0.26,0.2626,0.262,0.2616,0.2612,0.2609,0,0.1607,0.1637,0.1775,0.1817,0.1882,0.1981,0.2045,0.2197,0.2256,0.2445,0.2473,0.2617,0.269,0.2667,0.2765,0.2783,0.2751,0.2729,0.265,0.2597,0.2582,0.258,0.2577,0.2601,0.26,0.2599,0.2598,0,0.1541,0.161,0.1663,0.1753,0.1829,0.1896,0.1998,0.2025,0.2186,0.2334,0.2379,0.2422,0.2503,0.2556,0.2596,0.2601,0.2728,0.268,0.2688,0.2614,0.2567,0.2556,0.2559,0.2582,0.2584,0.2585,0.2586,0,0.1499,0.1519,0.1601,0.1663,0.1751,0.1776,0.1844,0.1902,0.1978,0.2175,0.2185,0.2331,0.2474,0.2463,0.2497,0.2494,0.2449,0.2356,0.2381,0.24,0.2293,0.2198,0.2089,0,0,0,0,0,0.1443,0.145,0.1501,0.1552,0.1631,0.1681,0.1794,0.1861,0.201,0.1986,0.2078,0.2141,0.2189,0.2268,0.2219,0.2402,0.2464,0.2334,0.2371,0.2493,0.2512,0.2406,0,0,0,0,0,0,0.1403,0.1449,0.1459,0.1444,0.1457,0.1523,0.1587,0.1689,0.168,0.1843,0.1883,0.2009,0.2094,0.2197,0.2178,0.2202,0.2179,0.2432,0.2426,0.2483,0.2499,0.2514,0.2412,0,0,0,0,0]},{"header":{"parameterUnit":"m.s-1","parameterCategory":2,"la1":30.2991,"la2":30.254,"lo1":-89.0895,"lo2":-89.0444,"dy":0.0017,"dx":0.0017,"nx":28,"ny":28,"refTime":"2024-10-20T09:00:00:Z","depth":"4","parameterNumber":3,"parameterNumberName":"V-component_of_CURRENTS"},"data":[0,0,0,0,0,0,0,0,0,0,0,0,0,0,0,0,0,0,0,0,0,0,0,0,0,0,0,0,0,0,0,0,0,0,0,0,0,0,0,0,0,0,0,0,0,0,0,0,0,0,0,0,0,0,0,0,0,0,0.0232,0.0231,0,0.018,0.018,0.0179,0.0145,0.0145,0.0144,0.0144,0.0077,0.0076,0.0074,0,0,0,0,0,0,0,0,0,0,0,0,0,0.0268,0.0268,0.0232,0.0231,0.0231,0.018,0.018,0.0179,0.0145,0.0145,0.0144,0.0144,0.0078,0.0076,0.0074,0,0,0,0,0,0,0,0,0,0,0,0,0,0.0238,0.0268,0.0232,0.0208,0.0205,0.018,0.018,0.0179,0.0145,0.0145,0.0144,0.0144,0.0079,0.0076,0.0074,0.0065,0,0,0.0067,0.0066,0,0,0,0,0,0,0,0,0.024,0.0236,0.0212,0.021,0.0207,0.0169,0.0168,0.014,0.0145,0.0167,0.0144,0.0144,0.0107,0.0102,0.0093,0.0062,0.0059,0.0066,0.0065,0.0064,0.0063,0,0,0,0,0,0,0,0.0242,0.0238,0.0211,0.0212,0.0208,0.0188,0.0184,0.0162,0.0139,0.0165,0.0163,0.0158,0.0105,0.0095,0.0091,0.0058,0.0066,0.0064,0.0063,0.0062,0.0013,0.0014,0,0,0,0,0,0,0.0251,0.024,0.0213,0.021,0.0223,0.0188,0.0183,0.0181,0.0139,0.0133,0.0158,0.0157,0.01,0.0094,0.0089,0.0081,0.0064,0.0062,0.006,0.0013,0.0013,0.0014,0,0,0,0,0,0,0.0252,0.0249,0.0215,0.0224,0.0218,0.0188,0.0186,0.018,0.0171,0.0134,0.0127,0.0155,0.0099,0.0092,0.0071,0.0078,0.0061,0.0058,0.0013,0.0013,0.0014,0.0062,0,0,0,0,0,0,0.0253,0.025,0.0253,0.0225,0.0218,0.0204,0.0186,0.0179,0.0169,0.0166,0.0129,0.0123,0.0098,0.0075,0.0069,0.0074,0.0056,0.0013,0.0013,0.0013,0.006,0.0064,0.0067,0,0,0,0,0,0.0255,0.026,0.0254,0.025,0.0223,0.0205,0.02,0.0176,0.0169,0.0167,0.0143,0.0124,0.0073,0.0073,0.0066,0.0071,0.0013,0.0013,0.0013,0.0058,0.0063,0.0067,0,0,0,0,0,0,0.0275,0.0256,0.0249,0.0247,0.023,0.0199,0.0197,0.0181,0.0161,0.016,0.0125,0.0116,0.01,0.0079,0.0081,0.0057,0.004,0.0039,0.0077,0.0081,0.0084,0.0099,0.0054,0,0,0,0,0,0.0282,0.0283,0.0259,0.0259,0.0253,0.0227,0.0218,0.0203,0.018,0.0171,0.0144,0.0118,0.0096,0.0084,0.006,0.0048,0.0023,0.0046,0.0049,0.0052,0.0059,0.0028,0.0029,0.0015,0.0015,0.0015,0,0,0.029,0.028,0.0281,0.0264,0.025,0.0246,0.0221,0.0211,0.0207,0.0167,0.0155,0.0128,0.0095,0.008,0.0071,0.0064,0.0043,0.0053,0.0056,0.0061,0.0028,0.003,0.0031,0.0015,0.0015,0.0015,0,0,0.0305,0.0299,0.0304,0.0294,0.0278,0.0263,0.0263,0.0236,0.0224,0.0208,0.018,0.0159,0.0123,0.0102,0.0087,0.0095,0.0061,0.0087,0.0117,0.0086,0.0087,0.0088,0.0057,0.0054,0.009,0.009,0.009,0,0.0314,0.0319,0.0302,0.0303,0.0303,0.0275,0.0281,0.0264,0.0233,0.0231,0.0211,0.0164,0.0134,0.0119,0.0121,0.0103,0.008,0.0105,0.0091,0.0091,0.0091,0.0059,0.0056,0.0092,0.0092,0.0092,0.0091,0,0.033,0.0337,0.034,0.0337,0.0333,0.0335,0.0314,0.0307,0.029,0.0273,0.0253,0.0208,0.0183,0.0167,0.0145,0.0134,0.0115,0.0099,0.0084,0.0096,0.0061,0.0056,0.0095,0.0095,0.0094,0.0093,0,0,0.0344,0.0351,0.0353,0.0366,0.0354,0.0356,0.0354,0.0348,0.0358,0.0316,0.0319,0.0271,0.025,0.0231,0.0197,0.0168,0.0142,0.0138,0.0136,0.0112,0.0074,0.0059,0.0052,0.0123,0.0123,0.0123,0.0049,0,0.0363,0.0384,0.038,0.0406,0.0418,0.0404,0.0407,0.0399,0.0388,0.0381,0.0332,0.0319,0.0273,0.0266,0.0228,0.0167,0.0133,0.0164,0.0061,0.0058,0.0047,0.0047,0.0121,0.0046,0.0045,0.0044,0.0043,0,0.0379,0.0395,0.0425,0.0453,0.0457,0.0467,0.0486,0.0489,0.0473,0.0461,0.0437,0.0398,0.0353,0.031,0.0208,0.0229,0.0159,0.0103,0.0099,0.0067,0.0035,0.003,0.0035,0.0036,0.0036,0.0037,0.0037,0,0.0403,0.043,0.0462,0.0469,0.0487,0.0504,0.0517,0.0516,0.0539,0.0521,0.053,0.0461,0.0435,0.0336,0.0221,0.0216,0.0101,0.0079,-0.0005,-0.0007,0.0007,0.0007,0.0004,0.0004,0.0004,0.0005,0.0005,0,0.0423,0.0451,0.048,0.0496,0.0546,0.0545,0.0596,0.0596,0.0611,0.0643,0.058,0.0578,0.0441,0.0358,0.0242,0.0107,0.0115,0.0001,-0.0026,0.0028,0.0032,0.0004,0.0005,0.0002,0.0002,0.0003,0.0003,0,0.0439,0.0455,0.05,0.0537,0.0559,0.0596,0.066,0.0696,0.0699,0.0737,0.0736,0.0669,0.0559,0.0414,0.0253,0.0145,0.0012,-0.004,0.0033,0.0011,-0.0084,-0.0079,-0.0139,-0.014,-0.0141,-0.0142,-0.0143,0,0.0446,0.0471,0.0539,0.0578,0.06,0.0661,0.0706,0.0738,0.0781,0.0791,0.0808,0.0723,0.0654,0.0422,0.0258,0.0032,-0.0005,-0.0082,-0.009,-0.0077,-0.0098,-0.0092,-0.0087,-0.0144,-0.0144,-0.0145,-0.0145,0,0.0464,0.0492,0.0531,0.0615,0.0675,0.0749,0.0815,0.0852,0.0884,0.0893,0.0868,0.0746,0.062,0.0429,0.0253,0.0089,-0.0037,-0.0093,-0.0093,-0.0101,-0.0084,-0.0102,-0.0096,-0.0148,-0.0148,-0.0147,-0.0147,0,0.0481,0.0514,0.0573,0.0647,0.073,0.0805,0.0841,0.0884,0.0925,0.0929,0.0918,0.0778,0.0701,0.0458,0.0298,0.0133,0.0083,0.0015,0.0009,0.0011,0.0069,0.0113,0.0089,0,0,0,0,0,0.0493,0.0531,0.0601,0.0681,0.0766,0.0817,0.09,0.0927,0.0959,0.095,0.0937,0.0817,0.058,0.0484,0.0317,0.0263,0.0044,0.0059,-0.0039,-0.0166,-0.0163,-0.0122,0,0,0,0,0,0,0.0497,0.056,0.0596,0.0698,0.0759,0.0856,0.091,0.0934,0.093,0.0934,0.0819,0.0761,0.054,0.0678,0.0312,0.0262,0.0171,-0.0046,-0.005,-0.0169,-0.0165,-0.0162,-0.0119,0,0,0,0,0]}]]